Weather Service Report


855 
ASUS45 KPSR 010010
RWRAZ 

ARIZONA HOURLY REGIONAL WEATHER ROUNDUP
NATIONAL WEATHER SERVICE PHOENIX AZ
500 PM MST SUN APR 30 2017

NOTE: FAIR INDICATES FEW OR NO CLOUDS BELOW 12,000 FEET WITH NO
SIGNIFICANT WEATHER AND/OR OBSTRUCTIONS TO VISIBILITY.

AZZ001>003-036-010100-
NORTHWEST ARIZONA
  
CITY           SKY/WX    TMP DP  RH WIND       PRES   REMARKS
BULLHEAD CITY  SUNNY     88  12   6 CALM      29.88F                  
KINGMAN        SUNNY     78  19  11 NW9       30.02F                  
6HR MIN TEMP:  69; 6HR MAX TEMP:  80;                                

$$

AZZ004>008-015-016-018-010100-
NORTH CENTRAL ARIZONA
  
CITY           SKY/WX    TMP DP  RH WIND       PRES   REMARKS
GRAND CANYON   SUNNY     61  12  14 NW5G22    30.13F                  
6HR MIN TEMP:  56; 6HR MAX TEMP:  63;                                

WILLIAMS       SUNNY     64  14  14 W8        30.13S                  
PRESCOTT       SUNNY     72  11   9 W15       30.06F                  
6HR MIN TEMP:  60; 6HR MAX TEMP:  73;                                

FLAGSTAFF      SUNNY     62   9  12 W10G18    30.13S                  
6HR MIN TEMP:  54; 6HR MAX TEMP:  63;                                

PAYSON         SUNNY     72  10   9 SW10G21   30.09F                  
PAGE           SUNNY     72  16  12 VRB5      29.97F                  
6HR MIN TEMP:  59; 6HR MAX TEMP:  74;                                

$$

AZZ009>014-017-010100-
NORTHEAST ARIZONA
  
CITY           SKY/WX    TMP DP  RH WIND       PRES   REMARKS
WINSLOW        SUNNY     72   8   8 NW13      30.03F                  
6HR MIN TEMP:  59; 6HR MAX TEMP:  73;                                

SAINT JOHNS    MOSUNNY   64  10  12 NW13      30.06S                  
6HR MIN TEMP:  56; 6HR MAX TEMP:  66;                                

WINDOW ROCK    MOSUNNY   60  13  15 W10       30.08S                  
6HR MIN TEMP:  51; 6HR MAX TEMP:  61;                                

SHOW LOW       SUNNY     63   7  11 NW9       30.11F                  
$$

AZZ540-542>544-546-548-010100-
GREATER PHOENIX AREA
  
CITY           SKY/WX    TMP DP  RH WIND       PRES   REMARKS
PHOENIX        MOSUNNY   86  16   7 SW13      29.90F                  
6HR MIN TEMP:  77; 6HR MAX TEMP:  87;                                

BUCKEYE        SUNNY     86  12   6 SW5       29.90F                  
GLENDALE       SUNNY     88   9   5 SE8       29.91F                  
LUKE AFB       SUNNY     87  13   6 S14       29.88F                  
6HR MIN TEMP:  78; 6HR MAX TEMP:  87;                                

DEER VALLEY    SUNNY     83  13   7 S5        29.91F                  
6HR MIN TEMP:  76; 6HR MAX TEMP:  84;                                

SCOTTSDALE     SUNNY     84  15   7 MISG      29.93F                  
6HR MIN TEMP:  77; 6HR MAX TEMP:  85;                                

MESA-FALCON    SUNNY    N/A N/A N/A NW6       29.93F                  
MESA-GATEWAY   SUNNY     82  18   9 W9        29.93F                  
CHANDLER       SUNNY     84  10   6 NW7       29.92F                  
$$

AZZ539-553-010100-
SOUTHWEST MARICOPA COUNTY AND PINAL COUNTY
  
CITY           SKY/WX    TMP DP  RH WIND       PRES   REMARKS
CASA GRANDE    SUNNY     83  15   8 SW12      29.94F                  
6HR MIN TEMP:  75; 6HR MAX TEMP:  84;                                

GILA BEND      FAIR      88   9   5 S12       29.89F                  
6HR MIN TEMP:  78; 6HR MAX TEMP:  88;                                

$$

AZZ503-504-507>509-010100-
SOUTHEAST ARIZONA
  
CITY           SKY/WX    TMP DP  RH WIND       PRES   REMARKS
TUCSON         SUNNY     82   9   6 W12G17    29.99F                  
6HR MIN TEMP:  73; 6HR MAX TEMP:  84;                                

DAVIS-MONTHAN  SUNNY     80  11   7 NW10G21   29.98F                  
6HR MIN TEMP:  72; 6HR MAX TEMP:  81;                                

NOGALES        SUNNY     79   4   5 NW8       30.03F                  
6HR MIN TEMP:  70; 6HR MAX TEMP:  81;                                

SIERRA VISTA   SUNNY     74  -4   4 NW9G18    30.07F                  
6HR MIN TEMP:  67; 6HR MAX TEMP:  75;                                

DOUGLAS        SUNNY     77   7   7 W7G21     30.02F                  
6HR MIN TEMP:  68; 6HR MAX TEMP:  79;                                

SAFFORD        SUNNY     81  12   7 W17G25    29.93F                  
6HR MIN TEMP:  72; 6HR MAX TEMP:  82;                                

$$

AZZ532-010100-
SOUTHWEST ARIZONA
  
CITY           SKY/WX    TMP DP  RH WIND       PRES   REMARKS
YUMA           SUNNY     91  15   6 SW9       29.89F                  
6HR MIN TEMP:  87; 6HR MAX TEMP:  92;                                

$$

CAZ041-043-047-048-061-525>527-560>570-010100-
SOUTHERN CALIFORNIA
  
CITY           SKY/WX    TMP DP  RH WIND       PRES   REMARKS
DOWNTOWN L.A.  SUNNY     78  39  24 VRB7      29.98F                  
6HR MIN TEMP:  78; 6HR MAX TEMP:  87;                                

L.A. AIRPORT   SUNNY     70  50  49 W13       30.00F                  
6HR MIN TEMP:  70; 6HR MAX TEMP:  80;                                

SAN DIEGO      SUNNY     76  51  41 NW12G17   30.01S                  
6HR MIN TEMP:  74; 6HR MAX TEMP:  82;                                

BURBANK        SUNNY     82  22  11 S10       29.99F                  
6HR MIN TEMP:  79; 6HR MAX TEMP:  86;                                

ONTARIO        SUNNY     84  27  12 SW17G25   29.98F                  
6HR MIN TEMP:  79; 6HR MAX TEMP:  88;                                

RIVERSIDE      SUNNY     84  22  10 W18G24    29.97F                  
6HR MIN TEMP:  80; 6HR MAX TEMP:  90;                                

PALM SPRINGS   SUNNY     94  17   6 VRB6      29.90F                  
6HR MIN TEMP:  87; 6HR MAX TEMP:  94;                                

EL CENTRO NAS  SUNNY     90  14   6 E5        29.89F                  
6HR MIN TEMP:  86; 6HR MAX TEMP:  92;                                

IMPERIAL       SUNNY     91  22   8 E5        29.87F                  
6HR MIN TEMP:  85; 6HR MAX TEMP:  92;                                

BLYTHE         SUNNY     91  10   5 N8        29.89F                  
6HR MIN TEMP:  81; 6HR MAX TEMP:  92;                                

NEEDLES        SUNNY     91  16   6 E7        29.89F                  
6HR MIN TEMP:  82; 6HR MAX TEMP:  92;                                

$$

NVZ020-UTZ003-010100-
SOUTHERN NEVADA-UTAH
  
CITY           SKY/WX    TMP DP  RH WIND       PRES   REMARKS
LAS VEGAS      MOSUNNY   84  11   6 NE8       29.92F                  
6HR MIN TEMP:  71; 6HR MAX TEMP:  85;                                

SALT LAKE CITY PTSUNNY   61  29  29 N6        30.06F                  
6HR MIN TEMP:  56; 6HR MAX TEMP:  62;                                

$$

NMZ009-TXZ055-010100-
NEW MEXICO-WEST TEXAS
  
CITY           SKY/WX    TMP DP  RH WIND       PRES   REMARKS
ALBUQUERQUE    MOSUNNY   64  10  12 NW21G29   29.98R                  
6HR MIN TEMP:  53; 6HR MAX TEMP:  65;                                

EL PASO        MOSUNNY   75   8   7 W10       29.95F                  
6HR MIN TEMP:  64; 6HR MAX TEMP:  76;                                

$$


........................KEY........................
SKY/WX - SKY CONDITION/WEATHER
TMP    - TEMPERATURE IN FAHRENHEIT
DP     - DEW POINT IN FAHRENHEIT
RH     - RELATIVE HUMIDITY IN PERCENT
WIND   - DIRECTION AND SPEED IN MILES PER HOUR (MPH)
VRB    - VARIABLE WIND DIRECTION
PRES   - MEAN SEA LEVEL PRESSURE IN INCHES OF MERCURY
         F - FALLING PRESSURE   R - RISING PRESSURE
         S - STEADY PRESSURE
VSB    - VISIBILITY IN MILES
HX     - HEAT INDEX IN FAHRENHEIT
WCI    - WIND CHILL INDEX IN FAHRENHEIT
TC     - TEMPERATURE IN CELSIUS WHICH IS ALSO KNOWN AS
         TEMPERATURE IN CENTIGRADE
AFB    - AIR FORCE BASE
         LUKE AFB IS LUKE AIR FORCE BASE
         DAVIS-MONTHAN IS DAVIS-MONTHAN AIR FORCE BASE
NAS    - NAVAL AIR STATION
         EL CENTRO NAS IS EL CENTRO NAVAL AIR STATION
N/A    - NOT AVAILABLE

  

Return to Home page


Western Regional Climate Center, wrcc@dri.edu